Location: Navalmoral
(40.4603°N, 4.7686°W)
Time: 17:15:51
(UTC+00:00)

USA 59 Rocket - Pass Details

Date: 05 August 2024
Orbit: 380 x 1730 km, 63.3° (Epoch: 19 September)

Event Time Altitude Azimuth Distance (km) Brightness Sun altitude
Rises 20:15:43 0° 201° (SSW) 2,790 3.3 -8.8°
Reaches altitude 10° 20:18:14 10° 195° (SSW) 1,728 2.2 -9.2°
Maximum altitude 20:21:46 45° 122° (ESE) 606 -0.4 -9.8°
Drops below altitude 10° 20:24:44 10° 48° (NE) 1,444 1.8 -10.2°
Sets 20:26:41 0° 41° (NE) 2,268 2.9 -10.5°
